owner,sensor,date,latitude,longitude,vertical_datum,sea_water_practical_salinity,qcFlag 
ENP,ioos.station.NOAA.NDBC:DKKF1:1,2019-11-01T00:00:00Z,25.1800,-80.4900,1.5,37.45,11111222 
ENP,ioos.station.NOAA.NDBC:DKKF1:1,2019-11-01T01:00:00Z,25.1800,-80.4900,1.5,37.47,11111222 
ENP,ioos.station.NOAA.NDBC:DKKF1:1,2019-11-01T03:00:00Z,25.1800,-80.4900,1.5,37.36,11111222 
ENP,ioos.station.NOAA.NDBC:DKKF1:1,2019-11-01T04:00:00Z,25.1800,-80.4900,1.5,37.34,11111222 
ENP,ioos.station.NOAA.NDBC:DKKF1:1,2019-11-01T05:00:00Z,25.1800,-80.4900,1.5,37.34,11111222 
ENP,ioos.station.NOAA.NDBC:DKKF1:1,2019-11-01T06:00:00Z,25.1800,-80.4900,1.5,37.34,11111222 
ENP,ioos.station.NOAA.NDBC:DKKF1:1,2019-11-01T07:00:00Z,25.1800,-80.4900,1.5,37.35,11111222 
ENP,ioos.station.NOAA.NDBC:DKKF1:1,2019-11-01T08:00:00Z,25.1800,-80.4900,1.5,37.36,11111222 
ENP,ioos.station.NOAA.NDBC:DKKF1:1,2019-11-01T09:00:00Z,25.1800,-80.4900,1.5,37.38,11111222 
ENP,ioos.station.NOAA.NDBC:DKKF1:1,2019-11-01T10:00:00Z,25.1800,-80.4900,1.5,37.38,11111222 
ENP,ioos.station.NOAA.NDBC:DKKF1:1,2019-11-01T11:00:00Z,25.1800,-80.4900,1.5,37.4,11111222 
ENP,ioos.station.NOAA.NDBC:DKKF1:1,2019-11-01T12:00:00Z,25.1800,-80.4900,1.5,37.42,11111222 
ENP,ioos.station.NOAA.NDBC:DKKF1:1,2019-11-01T14:00:00Z,25.1800,-80.4900,1.5,37.47,11111222 
ENP,ioos.station.NOAA.NDBC:DKKF1:1,2019-11-01T16:00:00Z,25.1800,-80.4900,1.5,37.53,11111222 
ENP,ioos.station.NOAA.NDBC:DKKF1:1,2019-11-01T17:00:00Z,25.1800,-80.4900,1.5,37.56,11111222 
ENP,ioos.station.NOAA.NDBC:DKKF1:1,2019-11-01T18:00:00Z,25.1800,-80.4900,1.5,37.59,11111222 
ENP,ioos.station.NOAA.NDBC:DKKF1:1,2019-11-01T19:00:00Z,25.1800,-80.4900,1.5,37.62,11111222 
ENP,ioos.station.NOAA.NDBC:DKKF1:1,2019-11-01T20:00:00Z,25.1800,-80.4900,1.5,37.64,11111222 
ENP,ioos.station.NOAA.NDBC:DKKF1:1,2019-11-01T22:00:00Z,25.1800,-80.4900,1.5,37.67,11111222 
ENP,ioos.station.NOAA.NDBC:DKKF1:1,2019-11-01T23:00:00Z,25.1800,-80.4900,1.5,37.68,11111222 
ENP,ioos.station.NOAA.NDBC:DKKF1:1,2019-11-02T01:00:00Z,25.1800,-80.4900,1.5,37.7,11111222 
ENP,ioos.station.NOAA.NDBC:DKKF1:1,2019-11-02T03:00:00Z,25.1800,-80.4900,1.5,37.71,11111222 
ENP,ioos.station.NOAA.NDBC:DKKF1:1,2019-11-02T04:00:00Z,25.1800,-80.4900,1.5,37.71,11111222 
ENP,ioos.station.NOAA.NDBC:DKKF1:1,2019-11-02T05:00:00Z,25.1800,-80.4900,1.5,37.72,11111222 
ENP,ioos.station.NOAA.NDBC:DKKF1:1,2019-11-02T06:00:00Z,25.1800,-80.4900,1.5,37.72,11111222 
ENP,ioos.station.NOAA.NDBC:DKKF1:1,2019-11-02T07:00:00Z,25.1800,-80.4900,1.5,37.73,11111222 
ENP,ioos.station.NOAA.NDBC:DKKF1:1,2019-11-02T08:00:00Z,25.1800,-80.4900,1.5,37.74,11111222 
ENP,ioos.station.NOAA.NDBC:DKKF1:1,2019-11-02T09:00:00Z,25.1800,-80.4900,1.5,37.74,11111222 
ENP,ioos.station.NOAA.NDBC:DKKF1:1,2019-11-02T10:00:00Z,25.1800,-80.4900,1.5,37.75,11111222 
ENP,ioos.station.NOAA.NDBC:DKKF1:1,2019-11-02T12:00:00Z,25.1800,-80.4900,1.5,37.75,11111222 
ENP,ioos.station.NOAA.NDBC:DKKF1:1,2019-11-02T13:00:00Z,25.1800,-80.4900,1.5,37.76,11111222 
ENP,ioos.station.NOAA.NDBC:DKKF1:1,2019-11-02T14:00:00Z,25.1800,-80.4900,1.5,37.76,11111222 
ENP,ioos.station.NOAA.NDBC:DKKF1:1,2019-11-02T15:00:00Z,25.1800,-80.4900,1.5,37.77,11111222 
ENP,ioos.station.NOAA.NDBC:DKKF1:1,2019-11-02T16:00:00Z,25.1800,-80.4900,1.5,37.77,11111222 
ENP,ioos.station.NOAA.NDBC:DKKF1:1,2019-11-02T17:00:00Z,25.1800,-80.4900,1.5,37.77,11111222 
ENP,ioos.station.NOAA.NDBC:DKKF1:1,2019-11-02T18:00:00Z,25.1800,-80.4900,1.5,37.78,11111222 
ENP,ioos.station.NOAA.NDBC:DKKF1:1,2019-11-02T19:00:00Z,25.1800,-80.4900,1.5,37.77,11111222 
ENP,ioos.station.NOAA.NDBC:DKKF1:1,2019-11-02T20:00:00Z,25.1800,-80.4900,1.5,37.76,11111222 
ENP,ioos.station.NOAA.NDBC:DKKF1:1,2019-11-02T21:00:00Z,25.1800,-80.4900,1.5,37.76,11111222 
ENP,ioos.station.NOAA.NDBC:DKKF1:1,2019-11-02T22:00:00Z,25.1800,-80.4900,1.5,37.76,11111222 
ENP,ioos.station.NOAA.NDBC:DKKF1:1,2019-11-02T23:00:00Z,25.1800,-80.4900,1.5,37.75,11111222 
ENP,ioos.station.NOAA.NDBC:DKKF1:1,2019-11-03T01:00:00Z,25.1800,-80.4900,1.5,37.75,11111222 
ENP,ioos.station.NOAA.NDBC:DKKF1:1,2019-11-03T03:00:00Z,25.1800,-80.4900,1.5,37.75,11111222 
ENP,ioos.station.NOAA.NDBC:DKKF1:1,2019-11-03T04:00:00Z,25.1800,-80.4900,1.5,37.75,11111222 
ENP,ioos.station.NOAA.NDBC:DKKF1:1,2019-11-03T06:00:00Z,25.1800,-80.4900,1.5,37.75,11111222 
ENP,ioos.station.NOAA.NDBC:DKKF1:1,2019-11-03T07:00:00Z,25.1800,-80.4900,1.5,37.76,11111222 
ENP,ioos.station.NOAA.NDBC:DKKF1:1,2019-11-03T08:00:00Z,25.1800,-80.4900,1.5,37.76,11111222 
ENP,ioos.station.NOAA.NDBC:DKKF1:1,2019-11-03T09:00:00Z,25.1800,-80.4900,1.5,37.77,11111222 
ENP,ioos.station.NOAA.NDBC:DKKF1:1,2019-11-03T10:00:00Z,25.1800,-80.4900,1.5,37.78,11111222 
ENP,ioos.station.NOAA.NDBC:DKKF1:1,2019-11-03T11:00:00Z,25.1800,-80.4900,1.5,37.79,11111222 
ENP,ioos.station.NOAA.NDBC:DKKF1:1,2019-11-03T12:00:00Z,25.1800,-80.4900,1.5,37.79,11111222 
ENP,ioos.station.NOAA.NDBC:DKKF1:1,2019-11-03T13:00:00Z,25.1800,-80.4900,1.5,37.8,11111222 
ENP,ioos.station.NOAA.NDBC:DKKF1:1,2019-11-03T14:00:00Z,25.1800,-80.4900,1.5,37.8,11111222 
ENP,ioos.station.NOAA.NDBC:DKKF1:1,2019-11-03T15:00:00Z,25.1800,-80.4900,1.5,37.8,11111222 
ENP,ioos.station.NOAA.NDBC:DKKF1:1,2019-11-03T16:00:00Z,25.1800,-80.4900,1.5,37.8,11111222 
ENP,ioos.station.NOAA.NDBC:DKKF1:1,2019-11-03T17:00:00Z,25.1800,-80.4900,1.5,37.8,11111222 
ENP,ioos.station.NOAA.NDBC:DKKF1:1,2019-11-03T18:00:00Z,25.1800,-80.4900,1.5,37.83,11111222 
ENP,ioos.station.NOAA.NDBC:DKKF1:1,2019-11-03T19:00:00Z,25.1800,-80.4900,1.5,37.83,11111222 
ENP,ioos.station.NOAA.NDBC:DKKF1:1,2019-11-03T20:00:00Z,25.1800,-80.4900,1.5,37.84,11111222 
ENP,ioos.station.NOAA.NDBC:DKKF1:1,2019-11-03T21:00:00Z,25.1800,-80.4900,1.5,37.85,11111222 
ENP,ioos.station.NOAA.NDBC:DKKF1:1,2019-11-03T22:00:00Z,25.1800,-80.4900,1.5,37.86,11111222 
ENP,ioos.station.NOAA.NDBC:DKKF1:1,2019-11-03T23:00:00Z,25.1800,-80.4900,1.5,37.9,11111222 
ENP,ioos.station.NOAA.NDBC:DKKF1:1,2019-11-04T01:00:00Z,25.1800,-80.4900,1.5,38.08,11111222 
ENP,ioos.station.NOAA.NDBC:DKKF1:1,2019-11-04T02:00:00Z,25.1800,-80.4900,1.5,38.16,11111222 
ENP,ioos.station.NOAA.NDBC:DKKF1:1,2019-11-04T04:00:00Z,25.1800,-80.4900,1.5,38.27,11111222 
ENP,ioos.station.NOAA.NDBC:DKKF1:1,2019-11-04T15:00:00Z,25.1800,-80.4900,1.5,38.17,11111222 
ENP,ioos.station.NOAA.NDBC:DKKF1:1,2019-11-04T16:00:00Z,25.1800,-80.4900,1.5,38.12,11111222 
ENP,ioos.station.NOAA.NDBC:DKKF1:1,2019-11-04T17:00:00Z,25.1800,-80.4900,1.5,38.1,11111222 
ENP,ioos.station.NOAA.NDBC:DKKF1:1,2019-11-04T18:00:00Z,25.1800,-80.4900,1.5,38.06,11111222 
ENP,ioos.station.NOAA.NDBC:DKKF1:1,2019-11-04T19:00:00Z,25.1800,-80.4900,1.5,38.05,11111222 
ENP,ioos.station.NOAA.NDBC:DKKF1:1,2019-11-04T20:00:00Z,25.1800,-80.4900,1.5,38.07,11111222 
ENP,ioos.station.NOAA.NDBC:DKKF1:1,2019-11-04T21:00:00Z,25.1800,-80.4900,1.5,38.07,11111222 
ENP,ioos.station.NOAA.NDBC:DKKF1:1,2019-11-04T22:00:00Z,25.1800,-80.4900,1.5,38.06,11111222 
ENP,ioos.station.NOAA.NDBC:DKKF1:1,2019-11-04T23:00:00Z,25.1800,-80.4900,1.5,38.04,11111222 
ENP,ioos.station.NOAA.NDBC:DKKF1:1,2019-11-05T00:00:00Z,25.1800,-80.4900,1.5,38.05,11111222 
ENP,ioos.station.NOAA.NDBC:DKKF1:1,2019-11-05T02:00:00Z,25.1800,-80.4900,1.5,38.14,11111222 
ENP,ioos.station.NOAA.NDBC:DKKF1:1,2019-11-05T04:00:00Z,25.1800,-80.4900,1.5,38.26,11111222 
ENP,ioos.station.NOAA.NDBC:DKKF1:1,2019-11-05T05:00:00Z,25.1800,-80.4900,1.5,38.27,11111222 
ENP,ioos.station.NOAA.NDBC:DKKF1:1,2019-11-05T06:00:00Z,25.1800,-80.4900,1.5,38.3,11111222 
ENP,ioos.station.NOAA.NDBC:DKKF1:1,2019-11-05T07:00:00Z,25.1800,-80.4900,1.5,38.29,11111222 
ENP,ioos.station.NOAA.NDBC:DKKF1:1,2019-11-05T08:00:00Z,25.1800,-80.4900,1.5,38.26,11111222 
ENP,ioos.station.NOAA.NDBC:DKKF1:1,2019-11-05T09:00:00Z,25.1800,-80.4900,1.5,38.25,11111222 
ENP,ioos.station.NOAA.NDBC:DKKF1:1,2019-11-05T10:00:00Z,25.1800,-80.4900,1.5,38.25,11111222 
ENP,ioos.station.NOAA.NDBC:DKKF1:1,2019-11-05T11:00:00Z,25.1800,-80.4900,1.5,38.25,11111222 
ENP,ioos.station.NOAA.NDBC:DKKF1:1,2019-11-05T12:00:00Z,25.1800,-80.4900,1.5,38.25,11111222 
ENP,ioos.station.NOAA.NDBC:DKKF1:1,2019-11-05T13:00:00Z,25.1800,-80.4900,1.5,38.27,11111222 
ENP,ioos.station.NOAA.NDBC:DKKF1:1,2019-11-05T14:00:00Z,25.1800,-80.4900,1.5,38.26,11111222 
ENP,ioos.station.NOAA.NDBC:DKKF1:1,2019-11-05T15:00:00Z,25.1800,-80.4900,1.5,38.26,11111222 
ENP,ioos.station.NOAA.NDBC:DKKF1:1,2019-11-05T16:00:00Z,25.1800,-80.4900,1.5,38.27,11111222 
ENP,ioos.station.NOAA.NDBC:DKKF1:1,2019-11-05T17:00:00Z,25.1800,-80.4900,1.5,38.28,11111222 
ENP,ioos.station.NOAA.NDBC:DKKF1:1,2019-11-05T18:00:00Z,25.1800,-80.4900,1.5,38.4,11111222 
ENP,ioos.station.NOAA.NDBC:DKKF1:1,2019-11-05T19:00:00Z,25.1800,-80.4900,1.5,38.57,11111222 
ENP,ioos.station.NOAA.NDBC:DKKF1:1,2019-11-05T20:00:00Z,25.1800,-80.4900,1.5,38.69,11111222 
ENP,ioos.station.NOAA.NDBC:DKKF1:1,2019-11-05T21:00:00Z,25.1800,-80.4900,1.5,38.84,11111222 
ENP,ioos.station.NOAA.NDBC:DKKF1:1,2019-11-05T22:00:00Z,25.1800,-80.4900,1.5,38.94,11111222 
ENP,ioos.station.NOAA.NDBC:DKKF1:1,2019-11-05T23:00:00Z,25.1800,-80.4900,1.5,39.0,11111222 
ENP,ioos.station.NOAA.NDBC:DKKF1:1,2019-11-06T00:00:00Z,25.1800,-80.4900,1.5,39.05,11111222 
ENP,ioos.station.NOAA.NDBC:DKKF1:1,2019-11-06T01:00:00Z,25.1800,-80.4900,1.5,39.08,11111222 
ENP,ioos.station.NOAA.NDBC:DKKF1:1,2019-11-06T02:00:00Z,25.1800,-80.4900,1.5,39.11,11111222 
ENP,ioos.station.NOAA.NDBC:DKKF1:1,2019-11-06T04:00:00Z,25.1800,-80.4900,1.5,39.15,11111222 
ENP,ioos.station.NOAA.NDBC:DKKF1:1,2019-11-06T05:00:00Z,25.1800,-80.4900,1.5,39.17,11111222 
ENP,ioos.station.NOAA.NDBC:DKKF1:1,2019-11-06T06:00:00Z,25.1800,-80.4900,1.5,39.19,11111222 
ENP,ioos.station.NOAA.NDBC:DKKF1:1,2019-11-06T07:00:00Z,25.1800,-80.4900,1.5,39.21,11111222 
ENP,ioos.station.NOAA.NDBC:DKKF1:1,2019-11-06T08:00:00Z,25.1800,-80.4900,1.5,39.22,11111222 
ENP,ioos.station.NOAA.NDBC:DKKF1:1,2019-11-06T09:00:00Z,25.1800,-80.4900,1.5,39.21,11111222 
ENP,ioos.station.NOAA.NDBC:DKKF1:1,2019-11-06T10:00:00Z,25.1800,-80.4900,1.5,39.18,11111222 
ENP,ioos.station.NOAA.NDBC:DKKF1:1,2019-11-06T11:00:00Z,25.1800,-80.4900,1.5,39.16,11111222 
ENP,ioos.station.NOAA.NDBC:DKKF1:1,2019-11-06T12:00:00Z,25.1800,-80.4900,1.5,39.14,11111222 
ENP,ioos.station.NOAA.NDBC:DKKF1:1,2019-11-06T13:00:00Z,25.1800,-80.4900,1.5,39.14,11111222 
ENP,ioos.station.NOAA.NDBC:DKKF1:1,2019-11-06T14:00:00Z,25.1800,-80.4900,1.5,39.14,11111222 
ENP,ioos.station.NOAA.NDBC:DKKF1:1,2019-11-06T15:00:00Z,25.1800,-80.4900,1.5,39.13,11111222 
ENP,ioos.station.NOAA.NDBC:DKKF1:1,2019-11-06T16:00:00Z,25.1800,-80.4900,1.5,39.06,11111222 
ENP,ioos.station.NOAA.NDBC:DKKF1:1,2019-11-06T17:00:00Z,25.1800,-80.4900,1.5,39.0,11111222 
ENP,ioos.station.NOAA.NDBC:DKKF1:1,2019-11-06T18:00:00Z,25.1800,-80.4900,1.5,39.0,11111222 
ENP,ioos.station.NOAA.NDBC:DKKF1:1,2019-11-06T19:00:00Z,25.1800,-80.4900,1.5,39.0,11111222 
ENP,ioos.station.NOAA.NDBC:DKKF1:1,2019-11-06T20:00:00Z,25.1800,-80.4900,1.5,39.02,11111222 
ENP,ioos.station.NOAA.NDBC:DKKF1:1,2019-11-06T21:00:00Z,25.1800,-80.4900,1.5,39.03,11111222 
ENP,ioos.station.NOAA.NDBC:DKKF1:1,2019-11-06T22:00:00Z,25.1800,-80.4900,1.5,39.04,11111222 
ENP,ioos.station.NOAA.NDBC:DKKF1:1,2019-11-06T23:00:00Z,25.1800,-80.4900,1.5,39.06,11111222 
ENP,ioos.station.NOAA.NDBC:DKKF1:1,2019-11-07T00:00:00Z,25.1800,-80.4900,1.5,39.08,11111222 
ENP,ioos.station.NOAA.NDBC:DKKF1:1,2019-11-07T01:00:00Z,25.1800,-80.4900,1.5,39.1,11111222 
ENP,ioos.station.NOAA.NDBC:DKKF1:1,2019-11-07T02:00:00Z,25.1800,-80.4900,1.5,39.11,11111222 
ENP,ioos.station.NOAA.NDBC:DKKF1:1,2019-11-07T04:00:00Z,25.1800,-80.4900,1.5,39.05,11111222 
ENP,ioos.station.NOAA.NDBC:DKKF1:1,2019-11-07T05:00:00Z,25.1800,-80.4900,1.5,39.05,11111222 
ENP,ioos.station.NOAA.NDBC:DKKF1:1,2019-11-07T06:00:00Z,25.1800,-80.4900,1.5,39.06,11111222 
ENP,ioos.station.NOAA.NDBC:DKKF1:1,2019-11-07T07:00:00Z,25.1800,-80.4900,1.5,39.06,11111222 
ENP,ioos.station.NOAA.NDBC:DKKF1:1,2019-11-07T08:00:00Z,25.1800,-80.4900,1.5,39.06,11111222 
ENP,ioos.station.NOAA.NDBC:DKKF1:1,2019-11-07T09:00:00Z,25.1800,-80.4900,1.5,39.05,11111222 
ENP,ioos.station.NOAA.NDBC:DKKF1:1,2019-11-07T10:00:00Z,25.1800,-80.4900,1.5,39.03,11111222 
ENP,ioos.station.NOAA.NDBC:DKKF1:1,2019-11-07T11:00:00Z,25.1800,-80.4900,1.5,39.02,11111222 
ENP,ioos.station.NOAA.NDBC:DKKF1:1,2019-11-07T12:00:00Z,25.1800,-80.4900,1.5,39.02,11111222 
ENP,ioos.station.NOAA.NDBC:DKKF1:1,2019-11-07T13:00:00Z,25.1800,-80.4900,1.5,39.02,11111222 
ENP,ioos.station.NOAA.NDBC:DKKF1:1,2019-11-07T14:00:00Z,25.1800,-80.4900,1.5,39.02,11111222 
ENP,ioos.station.NOAA.NDBC:DKKF1:1,2019-11-07T15:00:00Z,25.1800,-80.4900,1.5,39.02,11111222 
ENP,ioos.station.NOAA.NDBC:DKKF1:1,2019-11-07T16:00:00Z,25.1800,-80.4900,1.5,39.02,11111222 
ENP,ioos.station.NOAA.NDBC:DKKF1:1,2019-11-07T17:00:00Z,25.1800,-80.4900,1.5,39.02,11111222 
ENP,ioos.station.NOAA.NDBC:DKKF1:1,2019-11-07T18:00:00Z,25.1800,-80.4900,1.5,39.02,11111222 
ENP,ioos.station.NOAA.NDBC:DKKF1:1,2019-11-07T19:00:00Z,25.1800,-80.4900,1.5,39.01,11111222 
ENP,ioos.station.NOAA.NDBC:DKKF1:1,2019-11-07T20:00:00Z,25.1800,-80.4900,1.5,39.0,11111222 
ENP,ioos.station.NOAA.NDBC:DKKF1:1,2019-11-07T21:00:00Z,25.1800,-80.4900,1.5,39.0,11111222 
ENP,ioos.station.NOAA.NDBC:DKKF1:1,2019-11-07T22:00:00Z,25.1800,-80.4900,1.5,38.99,11111222 
ENP,ioos.station.NOAA.NDBC:DKKF1:1,2019-11-07T23:00:00Z,25.1800,-80.4900,1.5,38.99,11111222 
ENP,ioos.station.NOAA.NDBC:DKKF1:1,2019-11-08T00:00:00Z,25.1800,-80.4900,1.5,38.98,11111222 
ENP,ioos.station.NOAA.NDBC:DKKF1:1,2019-11-08T02:00:00Z,25.1800,-80.4900,1.5,38.98,11111222 
ENP,ioos.station.NOAA.NDBC:DKKF1:1,2019-11-08T04:00:00Z,25.1800,-80.4900,1.5,38.97,11111222 
ENP,ioos.station.NOAA.NDBC:DKKF1:1,2019-11-08T05:00:00Z,25.1800,-80.4900,1.5,38.97,11111222 
ENP,ioos.station.NOAA.NDBC:DKKF1:1,2019-11-08T06:00:00Z,25.1800,-80.4900,1.5,38.98,11111222 
ENP,ioos.station.NOAA.NDBC:DKKF1:1,2019-11-08T07:00:00Z,25.1800,-80.4900,1.5,38.98,11111222 
ENP,ioos.station.NOAA.NDBC:DKKF1:1,2019-11-08T08:00:00Z,25.1800,-80.4900,1.5,38.98,11111222 
ENP,ioos.station.NOAA.NDBC:DKKF1:1,2019-11-08T09:00:00Z,25.1800,-80.4900,1.5,38.98,11111222 
ENP,ioos.station.NOAA.NDBC:DKKF1:1,2019-11-08T10:00:00Z,25.1800,-80.4900,1.5,38.98,11111222 
ENP,ioos.station.NOAA.NDBC:DKKF1:1,2019-11-08T11:00:00Z,25.1800,-80.4900,1.5,38.99,11111222 
ENP,ioos.station.NOAA.NDBC:DKKF1:1,2019-11-08T13:00:00Z,25.1800,-80.4900,1.5,38.99,11111222 
ENP,ioos.station.NOAA.NDBC:DKKF1:1,2019-11-08T14:00:00Z,25.1800,-80.4900,1.5,38.99,11111222 
ENP,ioos.station.NOAA.NDBC:DKKF1:1,2019-11-08T16:00:00Z,25.1800,-80.4900,1.5,38.98,11111222 
ENP,ioos.station.NOAA.NDBC:DKKF1:1,2019-11-08T17:00:00Z,25.1800,-80.4900,1.5,38.99,11111222 
ENP,ioos.station.NOAA.NDBC:DKKF1:1,2019-11-08T18:00:00Z,25.1800,-80.4900,1.5,38.99,11111222 
ENP,ioos.station.NOAA.NDBC:DKKF1:1,2019-11-08T19:00:00Z,25.1800,-80.4900,1.5,39.01,11111222 
ENP,ioos.station.NOAA.NDBC:DKKF1:1,2019-11-08T20:00:00Z,25.1800,-80.4900,1.5,39.02,11111222 
ENP,ioos.station.NOAA.NDBC:DKKF1:1,2019-11-08T21:00:00Z,25.1800,-80.4900,1.5,39.02,11111222 
ENP,ioos.station.NOAA.NDBC:DKKF1:1,2019-11-08T22:00:00Z,25.1800,-80.4900,1.5,39.05,11111222 
ENP,ioos.station.NOAA.NDBC:DKKF1:1,2019-11-08T23:00:00Z,25.1800,-80.4900,1.5,39.05,11111222 
ENP,ioos.station.NOAA.NDBC:DKKF1:1,2019-11-09T01:00:00Z,25.1800,-80.4900,1.5,39.03,11111222 
ENP,ioos.station.NOAA.NDBC:DKKF1:1,2019-11-09T02:00:00Z,25.1800,-80.4900,1.5,39.03,11111222 
ENP,ioos.station.NOAA.NDBC:DKKF1:1,2019-11-09T04:00:00Z,25.1800,-80.4900,1.5,39.03,11111222 
ENP,ioos.station.NOAA.NDBC:DKKF1:1,2019-11-09T05:00:00Z,25.1800,-80.4900,1.5,39.02,11111222 
ENP,ioos.station.NOAA.NDBC:DKKF1:1,2019-11-09T06:00:00Z,25.1800,-80.4900,1.5,39.03,11111222 
ENP,ioos.station.NOAA.NDBC:DKKF1:1,2019-11-09T07:00:00Z,25.1800,-80.4900,1.5,39.03,11111222 
ENP,ioos.station.NOAA.NDBC:DKKF1:1,2019-11-09T08:00:00Z,25.1800,-80.4900,1.5,39.03,11111222 
ENP,ioos.station.NOAA.NDBC:DKKF1:1,2019-11-09T09:00:00Z,25.1800,-80.4900,1.5,38.96,11111222 
ENP,ioos.station.NOAA.NDBC:DKKF1:1,2019-11-09T10:00:00Z,25.1800,-80.4900,1.5,38.89,11111222 
ENP,ioos.station.NOAA.NDBC:DKKF1:1,2019-11-09T11:00:00Z,25.1800,-80.4900,1.5,38.93,11111222 
ENP,ioos.station.NOAA.NDBC:DKKF1:1,2019-11-09T12:00:00Z,25.1800,-80.4900,1.5,38.99,11111222 
ENP,ioos.station.NOAA.NDBC:DKKF1:1,2019-11-09T13:00:00Z,25.1800,-80.4900,1.5,38.99,11111222 
ENP,ioos.station.NOAA.NDBC:DKKF1:1,2019-11-09T14:00:00Z,25.1800,-80.4900,1.5,39.0,11111222 
ENP,ioos.station.NOAA.NDBC:DKKF1:1,2019-11-09T15:00:00Z,25.1800,-80.4900,1.5,39.08,11111222 
ENP,ioos.station.NOAA.NDBC:DKKF1:1,2019-11-09T16:00:00Z,25.1800,-80.4900,1.5,39.26,11111222 
ENP,ioos.station.NOAA.NDBC:DKKF1:1,2019-11-09T17:00:00Z,25.1800,-80.4900,1.5,39.32,11111222 
ENP,ioos.station.NOAA.NDBC:DKKF1:1,2019-11-09T18:00:00Z,25.1800,-80.4900,1.5,39.29,11111222 
ENP,ioos.station.NOAA.NDBC:DKKF1:1,2019-11-09T19:00:00Z,25.1800,-80.4900,1.5,39.3,11111222 
ENP,ioos.station.NOAA.NDBC:DKKF1:1,2019-11-09T20:00:00Z,25.1800,-80.4900,1.5,39.14,11111222 
ENP,ioos.station.NOAA.NDBC:DKKF1:1,2019-11-09T21:00:00Z,25.1800,-80.4900,1.5,39.0,11111222 
ENP,ioos.station.NOAA.NDBC:DKKF1:1,2019-11-09T22:00:00Z,25.1800,-80.4900,1.5,38.9,11111222 
ENP,ioos.station.NOAA.NDBC:DKKF1:1,2019-11-09T23:00:00Z,25.1800,-80.4900,1.5,38.87,11111222 
ENP,ioos.station.NOAA.NDBC:DKKF1:1,2019-11-10T01:00:00Z,25.1800,-80.4900,1.5,38.81,11111222 
ENP,ioos.station.NOAA.NDBC:DKKF1:1,2019-11-10T02:00:00Z,25.1800,-80.4900,1.5,38.89,11111222 
ENP,ioos.station.NOAA.NDBC:DKKF1:1,2019-11-10T04:00:00Z,25.1800,-80.4900,1.5,38.95,11111222 
ENP,ioos.station.NOAA.NDBC:DKKF1:1,2019-11-10T05:00:00Z,25.1800,-80.4900,1.5,38.96,11111222 
ENP,ioos.station.NOAA.NDBC:DKKF1:1,2019-11-10T06:00:00Z,25.1800,-80.4900,1.5,38.94,11111222 
ENP,ioos.station.NOAA.NDBC:DKKF1:1,2019-11-10T07:00:00Z,25.1800,-80.4900,1.5,38.96,11111222 
ENP,ioos.station.NOAA.NDBC:DKKF1:1,2019-11-10T08:00:00Z,25.1800,-80.4900,1.5,38.96,11111222 
ENP,ioos.station.NOAA.NDBC:DKKF1:1,2019-11-10T09:00:00Z,25.1800,-80.4900,1.5,38.94,11111222 
ENP,ioos.station.NOAA.NDBC:DKKF1:1,2019-11-10T10:00:00Z,25.1800,-80.4900,1.5,38.93,11111222 
ENP,ioos.station.NOAA.NDBC:DKKF1:1,2019-11-10T11:00:00Z,25.1800,-80.4900,1.5,38.93,11111222 
ENP,ioos.station.NOAA.NDBC:DKKF1:1,2019-11-10T12:00:00Z,25.1800,-80.4900,1.5,38.93,11111222 
ENP,ioos.station.NOAA.NDBC:DKKF1:1,2019-11-10T13:00:00Z,25.1800,-80.4900,1.5,38.81,11111222 
ENP,ioos.station.NOAA.NDBC:DKKF1:1,2019-11-10T14:00:00Z,25.1800,-80.4900,1.5,38.8,11111222 
ENP,ioos.station.NOAA.NDBC:DKKF1:1,2019-11-10T15:00:00Z,25.1800,-80.4900,1.5,38.62,11111222 
ENP,ioos.station.NOAA.NDBC:DKKF1:1,2019-11-10T16:00:00Z,25.1800,-80.4900,1.5,38.48,11111222 
ENP,ioos.station.NOAA.NDBC:DKKF1:1,2019-11-10T17:00:00Z,25.1800,-80.4900,1.5,38.49,11111222 
ENP,ioos.station.NOAA.NDBC:DKKF1:1,2019-11-10T18:00:00Z,25.1800,-80.4900,1.5,38.5,11111222 
ENP,ioos.station.NOAA.NDBC:DKKF1:1,2019-11-10T19:00:00Z,25.1800,-80.4900,1.5,38.51,11111222 
ENP,ioos.station.NOAA.NDBC:DKKF1:1,2019-11-10T20:00:00Z,25.1800,-80.4900,1.5,38.54,11111222 
ENP,ioos.station.NOAA.NDBC:DKKF1:1,2019-11-10T21:00:00Z,25.1800,-80.4900,1.5,38.59,11111222 
ENP,ioos.station.NOAA.NDBC:DKKF1:1,2019-11-11T01:00:00Z,25.1800,-80.4900,1.5,38.71,11111222 
ENP,ioos.station.NOAA.NDBC:DKKF1:1,2019-11-11T04:00:00Z,25.1800,-80.4900,1.5,38.78,11111222 
ENP,ioos.station.NOAA.NDBC:DKKF1:1,2019-11-11T13:00:00Z,25.1800,-80.4900,1.5,38.89,11111222 
ENP,ioos.station.NOAA.NDBC:DKKF1:1,2019-11-11T14:00:00Z,25.1800,-80.4900,1.5,38.9,11111222 
ENP,ioos.station.NOAA.NDBC:DKKF1:1,2019-11-11T16:00:00Z,25.1800,-80.4900,1.5,38.9,11111222 
ENP,ioos.station.NOAA.NDBC:DKKF1:1,2019-11-11T17:00:00Z,25.1800,-80.4900,1.5,38.91,11111222 
ENP,ioos.station.NOAA.NDBC:DKKF1:1,2019-11-11T18:00:00Z,25.1800,-80.4900,1.5,38.92,11111222 
ENP,ioos.station.NOAA.NDBC:DKKF1:1,2019-11-11T19:00:00Z,25.1800,-80.4900,1.5,38.93,11111222 
ENP,ioos.station.NOAA.NDBC:DKKF1:1,2019-11-11T20:00:00Z,25.1800,-80.4900,1.5,38.93,11111222 
ENP,ioos.station.NOAA.NDBC:DKKF1:1,2019-11-11T21:00:00Z,25.1800,-80.4900,1.5,38.94,11111222 
ENP,ioos.station.NOAA.NDBC:DKKF1:1,2019-11-11T22:00:00Z,25.1800,-80.4900,1.5,38.95,11111222 
ENP,ioos.station.NOAA.NDBC:DKKF1:1,2019-11-11T23:00:00Z,25.1800,-80.4900,1.5,38.96,11111222 
ENP,ioos.station.NOAA.NDBC:DKKF1:1,2019-11-12T00:00:00Z,25.1800,-80.4900,1.5,38.96,11111222 
ENP,ioos.station.NOAA.NDBC:DKKF1:1,2019-11-12T01:00:00Z,25.1800,-80.4900,1.5,38.96,11111222 
ENP,ioos.station.NOAA.NDBC:DKKF1:1,2019-11-12T02:00:00Z,25.1800,-80.4900,1.5,38.96,11111222 
ENP,ioos.station.NOAA.NDBC:DKKF1:1,2019-11-12T04:00:00Z,25.1800,-80.4900,1.5,38.97,11111222 
ENP,ioos.station.NOAA.NDBC:DKKF1:1,2019-11-12T05:00:00Z,25.1800,-80.4900,1.5,38.98,11111222 
ENP,ioos.station.NOAA.NDBC:DKKF1:1,2019-11-12T06:00:00Z,25.1800,-80.4900,1.5,38.98,11111222 
ENP,ioos.station.NOAA.NDBC:DKKF1:1,2019-11-12T07:00:00Z,25.1800,-80.4900,1.5,38.98,11111222 
ENP,ioos.station.NOAA.NDBC:DKKF1:1,2019-11-12T08:00:00Z,25.1800,-80.4900,1.5,38.98,11111222 
ENP,ioos.station.NOAA.NDBC:DKKF1:1,2019-11-12T09:00:00Z,25.1800,-80.4900,1.5,38.98,11111222 
ENP,ioos.station.NOAA.NDBC:DKKF1:1,2019-11-12T10:00:00Z,25.1800,-80.4900,1.5,38.96,11111222 
ENP,ioos.station.NOAA.NDBC:DKKF1:1,2019-11-12T11:00:00Z,25.1800,-80.4900,1.5,38.94,11111222 
ENP,ioos.station.NOAA.NDBC:DKKF1:1,2019-11-12T13:00:00Z,25.1800,-80.4900,1.5,38.93,11111222 
ENP,ioos.station.NOAA.NDBC:DKKF1:1,2019-11-12T14:00:00Z,25.1800,-80.4900,1.5,38.93,11111222 
ENP,ioos.station.NOAA.NDBC:DKKF1:1,2019-11-12T15:00:00Z,25.1800,-80.4900,1.5,38.93,11111222 
ENP,ioos.station.NOAA.NDBC:DKKF1:1,2019-11-12T16:00:00Z,25.1800,-80.4900,1.5,38.93,11111222 
ENP,ioos.station.NOAA.NDBC:DKKF1:1,2019-11-12T17:00:00Z,25.1800,-80.4900,1.5,38.93,11111222 
ENP,ioos.station.NOAA.NDBC:DKKF1:1,2019-11-12T18:00:00Z,25.1800,-80.4900,1.5,38.93,11111222 
ENP,ioos.station.NOAA.NDBC:DKKF1:1,2019-11-12T19:00:00Z,25.1800,-80.4900,1.5,38.84,11111222 
ENP,ioos.station.NOAA.NDBC:DKKF1:1,2019-11-12T20:00:00Z,25.1800,-80.4900,1.5,38.86,11111222 
ENP,ioos.station.NOAA.NDBC:DKKF1:1,2019-11-12T21:00:00Z,25.1800,-80.4900,1.5,38.87,11111222 
ENP,ioos.station.NOAA.NDBC:DKKF1:1,2019-11-12T22:00:00Z,25.1800,-80.4900,1.5,38.87,11111222 
ENP,ioos.station.NOAA.NDBC:DKKF1:1,2019-11-12T23:00:00Z,25.1800,-80.4900,1.5,38.87,11111222 
ENP,ioos.station.NOAA.NDBC:DKKF1:1,2019-11-13T00:00:00Z,25.1800,-80.4900,1.5,38.87,11111222 
ENP,ioos.station.NOAA.NDBC:DKKF1:1,2019-11-13T01:00:00Z,25.1800,-80.4900,1.5,38.88,11111222 
ENP,ioos.station.NOAA.NDBC:DKKF1:1,2019-11-13T02:00:00Z,25.1800,-80.4900,1.5,38.88,11111222 
ENP,ioos.station.NOAA.NDBC:DKKF1:1,2019-11-13T04:00:00Z,25.1800,-80.4900,1.5,38.81,11111222 
ENP,ioos.station.NOAA.NDBC:DKKF1:1,2019-11-13T05:00:00Z,25.1800,-80.4900,1.5,38.79,11111222 
ENP,ioos.station.NOAA.NDBC:DKKF1:1,2019-11-13T06:00:00Z,25.1800,-80.4900,1.5,38.78,11111222 
ENP,ioos.station.NOAA.NDBC:DKKF1:1,2019-11-13T07:00:00Z,25.1800,-80.4900,1.5,38.77,11111222 
ENP,ioos.station.NOAA.NDBC:DKKF1:1,2019-11-13T08:00:00Z,25.1800,-80.4900,1.5,38.77,11111222 
ENP,ioos.station.NOAA.NDBC:DKKF1:1,2019-11-13T09:00:00Z,25.1800,-80.4900,1.5,38.77,11111222 
ENP,ioos.station.NOAA.NDBC:DKKF1:1,2019-11-13T10:00:00Z,25.1800,-80.4900,1.5,38.78,11111222 
ENP,ioos.station.NOAA.NDBC:DKKF1:1,2019-11-13T11:00:00Z,25.1800,-80.4900,1.5,38.78,11111222 
ENP,ioos.station.NOAA.NDBC:DKKF1:1,2019-11-13T12:00:00Z,25.1800,-80.4900,1.5,38.78,11111222 
ENP,ioos.station.NOAA.NDBC:DKKF1:1,2019-11-13T13:00:00Z,25.1800,-80.4900,1.5,38.77,11111222 
ENP,ioos.station.NOAA.NDBC:DKKF1:1,2019-11-13T14:00:00Z,25.1800,-80.4900,1.5,38.77,11111222 
ENP,ioos.station.NOAA.NDBC:DKKF1:1,2019-11-13T16:00:00Z,25.1800,-80.4900,1.5,38.78,11111222 
ENP,ioos.station.NOAA.NDBC:DKKF1:1,2019-11-13T17:00:00Z,25.1800,-80.4900,1.5,38.78,11111222 
ENP,ioos.station.NOAA.NDBC:DKKF1:1,2019-11-13T18:00:00Z,25.1800,-80.4900,1.5,38.79,11111222 
ENP,ioos.station.NOAA.NDBC:DKKF1:1,2019-11-13T19:00:00Z,25.1800,-80.4900,1.5,38.8,11111222 
ENP,ioos.station.NOAA.NDBC:DKKF1:1,2019-11-13T20:00:00Z,25.1800,-80.4900,1.5,38.81,11111222 